Location: The Saddle
(36.8333°N, 80.3417°W)
Time: 15:34:27
(UTC-05:00)

Vanguard 2 Rocket - All Passes

Search period start: 25 January 2022 00:00
Search period end: 04 February 2022 00:00
Orbit: 553 x 3325 km, 32.9° (Epoch: 25 January)

Date Brightness Start Highest point End Pass type
(mag) Time Alt. Az. Time Alt. Az. Time Alt. Az.
25 Jan - 00:06:14 10° SSW 00:16:45 36° SE 00:32:15 10° E visible
25 Jan - 02:17:37 10° WSW 02:32:09 68° SSE 02:52:19 10° E visible
25 Jan - 04:32:19 10° W 04:50:32 79° S 05:10:20 10° E visible
25 Jan - 06:49:19 10° W 07:09:04 62° SSW 07:25:42 10° SE visible
25 Jan - 09:09:08 10° W 09:24:48 31° SW 09:36:49 10° SSE daylight
25 Jan - 23:08:21 10° S 23:16:33 24° SE 23:28:02 10° E night (unlit)
26 Jan - 01:17:51 10° SW 01:30:27 58° SSE 01:49:26 10° E visible
26 Jan - 03:31:24 10° WSW 03:47:50 78° S 04:08:21 10° E visible
26 Jan - 05:47:22 10° W 06:06:40 70° SSW 06:25:04 10° ESE visible
26 Jan - 08:05:39 10° W 08:23:42 42° SW 08:38:04 10° SSE daylight
26 Jan - 10:31:41 10° WSW 10:37:34 12° SW 10:42:51 10° SSW daylight
26 Jan - 22:12:31 10° SSE 22:16:50 13° SE 22:22:00 10° ESE night (unlit)
27 Jan - 00:18:41 10° SW 00:29:24 46° SE 00:46:11 10° E visible
27 Jan - 02:30:58 10° WSW 02:45:28 74° SSE 03:05:52 10° E visible
27 Jan - 04:45:56 10° W 05:04:00 76° S 05:23:47 10° ESE visible
27 Jan - 07:02:59 10° W 07:22:00 53° SSW 07:38:28 10° SE visible
27 Jan - 09:24:17 10° W 09:37:09 22° SW 09:47:44 10° S daylight
27 Jan - 23:20:10 10° SSW 23:29:00 33° SE 23:42:34 10° E visible
28 Jan - 01:31:03 10° WSW 01:43:35 67° SSE 02:02:59 10° E visible
28 Jan - 03:44:59 10° W 04:01:20 78° S 04:21:52 10° E visible
28 Jan - 06:00:59 10° W 06:19:50 62° SSW 06:38:06 10° SE visible
28 Jan - 08:19:56 10° W 08:36:13 32° SW 08:49:50 10° SSE daylight
28 Jan - 22:22:36 10° S 22:29:10 21° SE 22:38:21 10° E night (unlit)
29 Jan - 00:31:36 10° SW 00:42:19 57° SSE 00:59:50 10° E visible
29 Jan - 02:44:30 10° WSW 02:58:55 78° S 03:19:23 10° E visible
29 Jan - 04:59:33 10° W 05:17:21 70° SSW 05:37:01 10° ESE visible
29 Jan - 07:16:53 10° W 07:34:45 42° SW 07:50:43 10° SSE daylight
29 Jan - 09:41:40 10° WSW 09:49:27 14° SW 09:56:28 10° SSW daylight
29 Jan - 21:28:47 10° SE 21:29:45 10° SE 21:30:45 10° ESE night (unlit)
29 Jan - 23:32:41 10° SSW 23:41:41 44° SE 23:56:31 10° E visible
30 Jan - 01:44:27 10° WSW 01:56:55 74° SSE 02:16:31 10° E visible
30 Jan - 03:58:36 10° W 04:14:48 75° S 04:35:14 10° ESE visible
30 Jan - 06:14:43 10° W 06:32:50 52° SSW 06:50:43 10° SE visible
30 Jan - 08:35:04 10° W 08:48:37 23° SW 09:00:35 10° S daylight
30 Jan - 22:34:23 10° SSW 22:41:40 30° SE 22:52:59 10° E night (unlit)
31 Jan - 00:44:50 10° WSW 00:55:29 66° SSE 01:13:23 10° E visible
31 Jan - 02:58:06 10° W 03:12:25 77° S 03:32:52 10° ESE visible
31 Jan - 05:13:12 10° W 05:30:34 61° SSW 05:49:57 10° SE visible
31 Jan - 07:31:12 10° W 07:47:22 32° SW 08:02:19 10° SSE daylight
31 Jan - 21:37:08 10° S 21:42:09 18° SE 21:48:55 10° E night (unlit)
31 Jan - 23:45:39 10° SW 23:54:39 54° SSE 00:10:10 10° E visible
01 Feb - 01:57:59 10° W 02:10:24 77° S 02:30:01 10° E visible
01 Feb - 04:12:13 10° W 04:28:11 69° SSW 04:48:24 10° ESE visible
01 Feb - 06:28:38 10° W 06:45:40 42° SW 07:02:50 10° SSE visible
01 Feb - 08:52:20 10° WSW 09:01:03 14° SW 09:09:13 10° SSW daylight
01 Feb - 22:46:56 10° SSW 22:54:25 40° SE 23:06:58 10° E night (unlit)
02 Feb - 00:58:17 10° WSW 01:08:51 73° SSE 01:26:54 10° E visible
02 Feb - 03:11:44 10° W 03:25:55 74° S 03:46:12 10° ESE visible
02 Feb - 05:26:56 10° W 05:43:38 51° SSW 06:02:26 10° SE visible
02 Feb - 07:46:23 10° W 07:59:54 23° SW 08:12:51 10° S daylight
02 Feb - 21:48:50 10° SSW 21:54:44 26° SE 22:03:42 10° E night (unlit)
02 Feb - 23:58:55 10° WSW 00:07:51 64° SSE 00:23:43 10° E visible
03 Feb - 02:11:37 10° W 02:23:55 76° S 02:43:27 10° ESE visible
03 Feb - 04:25:54 10° W 04:41:26 60° SSW 05:01:13 10° SE visible
03 Feb - 06:43:01 10° W 06:58:24 32° SW 07:14:13 10° SSE visible
03 Feb - 20:52:00 10° SSE 20:55:27 14° SE 20:59:45 10° ESE night (unlit)
03 Feb - 22:59:55 10° SW 23:07:26 51° SSE 23:20:39 10° E night (unlit)
